2021-006AE (47441 NORAD) Tracking and Keplerian Element Data
This shows tracking and keplerian element data for the satellite.
Feedback or suggestion? Click here.
Element | Value |
Catalog | 47441 |
Name | 2021-006AE |
Epoch Orbit | 473 |
Epoch Day | 53.90342156 |
Epoch Year | 2021 |
RAAN | 117.0983 |
Inclination | 97.5023 |
Eccentricity | 0.0013606 |
Argument of Perigee | 130.6285 |
Mean Anonmoly | 229.6132 |
Mean Motion | 15.12763348 |
Decay Rate | 1.681E-05 |
L1 | 1 47441U 21006AE 21053.90342156 .00001681 00000-0 99368-4 0 9995 |
L2 | 2 47441 97.5023 117.0983 0013606 130.6285 229.6132 15.12763348 4737 |
Live tracking and technical data element details for 2021-006AE (NORAD 47441). 2021-006AE can be tracked NOW for your location showing map with azimuth and elevation plus other details from your city location.
Track the satellite on the map from your city or location and see movement details for azimuth, elevation, latitude, longitude, range, height, and movement on the map or in text.
IsCatalogInMostPopularTable: catalog: 47441, numindb: 13
Update: records affected: 1
GetName: 47441 2021-006AE
Hit Count: updated at: Sat, 10 Apr 2021 19:22:46 GMT